Location: Autingues
(50.8400°N, 1.9737°E)
Time: 20:59:26
(UTC+00:00)

Cosmos 1354 Rocket - Pass Details

Date: 15 May 2026
Orbit: 761 x 778 km, 74.0° (Epoch: 8 June)

Event Time Altitude Azimuth Distance (km) Brightness Sun altitude
Rises 21:57:19 0° 334° (NNW) 3,248 9.1 -16.0°
Reaches altitude 10° 21:59:43 10° 332° (NNW) 2,315 7.9 -16.1°
Maximum altitude 22:04:56 72° 249° (WSW) 808 4.1 -16.5°
Enters shadow 22:07:46 27° 171° (S) 1,427 4.8 -16.7°
